Location: Unspecified
(0.0000°N, 0.0000°E)
Time: 00:54:35
(UTC+00:00)

N. Korean satellite - Pass Details

Date: 23 January 2021
Orbit: 453 x 502 km, 97.2° (Epoch: 16 January)

Event Time Altitude Azimuth Distance (km) Brightness Sun altitude
Rises 04:16:33 0° 44° (NE) 2,451 10.4 -27.0°
Reaches altitude 10° 04:19:30 10° 73° (ENE) 1,581 9.8 -26.4°
Maximum altitude 04:21:05 13° 101° (E) 1,417 9.8 -26.0°
Drops below altitude 10° 04:22:41 10° 129° (SE) 1,586 10.1 -25.6°
Sets 04:25:38 0° 159° (SSE) 2,465 10.8 -24.9°
